"Pseudo-MPEC" for P211pbg

Created 2020 Jul 1 3:07:11 UT using Find_Orb

Click here for an explanation of pseudo-MPECs

 
 Astrometry: 
     P211pbg  C2020 06 14^Da.QM7Astrometry-MF]52r$/;)s/redacted;S2-\G:dR006.qF52
     P211pbg  C2020 06 14x`E6mL\*bHclickdZLshereO/F_cXlEY`c1Jt!XEj6e=LIYt3mG,F52
     P211pbg  C2020 06 14C0R(sdNforsC46.^00V05FTqL$*Fexplanation7xGxAXP#+o+$8F52

Station data:
(F52) Pan-STARRS 2, Haleakala  (N20.707384 W156.255910)  US/Hawaii. 1.8-m
   Ritchey-Chrétien + CCD.

Orbital elements:  P211pbg
   Perihelion 2020 Jun 19.102063 +/- 24.8 TT =  2:26:58 (JD 2459019.602063)
Epoch 2020 Jun 15.0 TT = JDT 2459015.5   Earth MOID: 0.0168   AutoNEOCP
M 356.47160717 +/- 13               (J2000 ecliptic)
n   0.86015087 +/- 0.384            Peri.  143.81309 +/- 100
a   1.09501388 +/- 0.326            Node   124.15639 +/- 60
e   0.0628713 +/- 0.27              Incl.    2.10502 +/- 8
P   1.15/418.52d           H 26.8   G  0.15   U 12.1  SR
q 1.02616892 +/- 0.0764    Q 1.16385883 +/- 42.5
From 3 observations 2020 June 14 (28.3 min); mean residual 0".24
Residuals in arcseconds: 
200614 F52  .21-  .12+    200614 F52  .41+  .25-    200614 F52  .21-  .12+    

Ephemerides (geocentric):
Date (UTC) HH   RA              Dec         delta   r     elong  mag " sig PA
---- -- -- --  -------------   -----------  ------ ------ -----  --- ---- ---
2020 07 01 03  19 30 39.980   +32 20 31.50  .01920 1.0273 123.3 20.3  55d  34
2020 07 01 04  19 31 01.685   +32 16 53.02  .01919 1.0274 123.4 20.3  55d  34
2020 07 01 05  19 31 23.387   +32 13 13.91  .01918 1.0274 123.4 20.3  55d  34
2020 07 01 06  19 31 45.088   +32 09 34.18  .01917 1.0274 123.5 20.3  55d  34
2020 07 01 07  19 32 06.785   +32 05 53.82  .01916 1.0274 123.5 20.3  55d  34
2020 07 01 08  19 32 28.481   +32 02 12.84  .01915 1.0274 123.6 20.3  56d  34
2020 07 01 09  19 32 50.173   +31 58 31.24  .01913 1.0274 123.6 20.3  56d  34
2020 07 01 10  19 33 11.863   +31 54 49.02  .01912 1.0274 123.7 20.3  56d  34
2020 07 01 11  19 33 33.549   +31 51 06.17  .01911 1.0274 123.7 20.3  56d  34
2020 07 01 12  19 33 55.233   +31 47 22.71  .01910 1.0274 123.8 20.3  56d  34
2020 07 01 13  19 34 16.913   +31 43 38.62  .01909 1.0274 123.8 20.3  56d  34
2020 07 01 14  19 34 38.589   +31 39 53.92  .01908 1.0274 123.9 20.3  56d  34
2020 07 01 15  19 35 00.262   +31 36 08.59  .01906 1.0274 124.0 20.3  56d  34
2020 07 01 16  19 35 21.932   +31 32 22.65  .01905 1.0275 124.0 20.3  56d  34
2020 07 01 17  19 35 43.597   +31 28 36.10  .01904 1.0275 124.1 20.3  56d  34
2020 07 01 18  19 36 05.259   +31 24 48.92  .01903 1.0275 124.1 20.3  56d  34
2020 07 01 19  19 36 26.916   +31 21 01.14  .01902 1.0275 124.2 20.3  56d  34
2020 07 01 20  19 36 48.569   +31 17 12.74  .01901 1.0275 124.2 20.3  56d  34
2020 07 01 21  19 37 10.218   +31 13 23.72  .01900 1.0275 124.3 20.3  56d  33
2020 07 01 22  19 37 31.862   +31 09 34.09  .01899 1.0275 124.3 20.2  56d  33
2020 07 01 23  19 37 53.502   +31 05 43.86  .01897 1.0275 124.4 20.2  56d  33
2020 07 02 00  19 38 15.136   +31 01 53.01  .01896 1.0275 124.4 20.2  56d  33
2020 07 02 01  19 38 36.766   +30 58 01.55  .01895 1.0275 124.5 20.2  56d  33
2020 07 02 02  19 38 58.391   +30 54 09.48  .01894 1.0275 124.5 20.2  56d  33
2020 07 02 03  19 39 20.011   +30 50 16.81  .01893 1.0276 124.6 20.2  56d  33
2020 07 02 04  19 39 41.625   +30 46 23.52  .01892 1.0276 124.7 20.2  57d  33
2020 07 02 05  19 40 03.234   +30 42 29.64  .01891 1.0276 124.7 20.2  57d  33
2020 07 02 06  19 40 24.837   +30 38 35.14  .01890 1.0276 124.8 20.2  57d  33
2020 07 02 07  19 40 46.435   +30 34 40.05  .01889 1.0276 124.8 20.2  57d  33
2020 07 02 08  19 41 08.026   +30 30 44.35  .01888 1.0276 124.9 20.2  57d  33
2020 07 02 09  19 41 29.612   +30 26 48.05  .01887 1.0276 124.9 20.2  57d  33
2020 07 02 10  19 41 51.192   +30 22 51.15  .01886 1.0276 125.0 20.2  57d  33
2020 07 02 11  19 42 12.765   +30 18 53.65  .01885 1.0276 125.0 20.2  57d  33
2020 07 02 12  19 42 34.332   +30 14 55.55  .01884 1.0276 125.1 20.2  57d  33
2020 07 02 13  19 42 55.892   +30 10 56.86  .01883 1.0276 125.2 20.2  57d  33
2020 07 02 14  19 43 17.446   +30 06 57.56  .01882 1.0277 125.2 20.2  57d  33
2020 07 02 15  19 43 38.993   +30 02 57.68  .01881 1.0277 125.3 20.2  57d  33
2020 07 02 16  19 44 00.533   +29 58 57.20  .01880 1.0277 125.3 20.2  57d  33
2020 07 02 17  19 44 22.066   +29 54 56.12  .01879 1.0277 125.4 20.2  57d  33
2020 07 02 18  19 44 43.592   +29 50 54.46  .01878 1.0277 125.4 20.2  57d  33
2020 07 02 19  19 45 05.110   +29 46 52.21  .01877 1.0277 125.5 20.2  57d  33
2020 07 02 20  19 45 26.621   +29 42 49.36  .01876 1.0277 125.6 20.2  57d  33
2020 07 02 21  19 45 48.124   +29 38 45.93  .01875 1.0277 125.6 20.2  57d  33
2020 07 02 22  19 46 09.620   +29 34 41.91  .01874 1.0277 125.7 20.2  57d  33
2020 07 02 23  19 46 31.108   +29 30 37.31  .01873 1.0277 125.7 20.2  57d  33
2020 07 03 00  19 46 52.587   +29 26 32.12  .01872 1.0277 125.8 20.2  58d  33
2020 07 03 01  19 47 14.059   +29 22 26.35  .01871 1.0278 125.8 20.2  58d  33
2020 07 03 02  19 47 35.522   +29 18 20.00  .01870 1.0278 125.9 20.2  58d  33